Year,Month,Day,Hour,Minute,Value (Times are PST for insolation in W/m^2)
2011,08,01,00,00,0.00
2011,08,01,00,01,0.00
2011,08,01,00,02,0.00
2011,08,01,00,03,0.00
2011,08,01,00,04,0.00
2011,08,01,00,05,0.00
2011,08,01,00,06,0.00
2011,08,01,00,07,0.00
2011,08,01,00,08,0.00
2011,08,01,00,09,0.00
2011,08,01,00,10,0.00
2011,08,01,00,11,0.00
2011,08,01,00,12,0.00
2011,08,01,00,13,0.00
2011,08,01,00,14,0.00
2011,08,01,00,15,0.00
2011,08,01,00,16,0.00
2011,08,01,00,17,0.00
2011,08,01,00,18,0.00
2011,08,01,00,19,0.00
2011,08,01,00,20,0.00
2011,08,01,00,21,0.00
2011,08,01,00,22,0.00
2011,08,01,00,23,0.00
2011,08,01,00,24,0.00
2011,08,01,00,25,0.00
2011,08,01,00,26,0.00
2011,08,01,00,27,0.00
2011,08,01,00,28,0.00
2011,08,01,00,29,0.00
2011,08,01,00,30,0.00
2011,08,01,00,31,0.00
2011,08,01,00,32,0.00
2011,08,01,00,33,0.00
2011,08,01,00,34,0.00
2011,08,01,00,35,0.00
2011,08,01,00,36,0.00
2011,08,01,00,37,0.00
2011,08,01,00,38,0.00
2011,08,01,00,39,0.00
2011,08,01,00,40,0.00
2011,08,01,00,41,0.00
2011,08,01,00,42,0.00
2011,08,01,00,43,0.00
2011,08,01,00,44,0.00
2011,08,01,00,45,0.00
2011,08,01,00,46,0.00
2011,08,01,00,47,0.00
2011,08,01,00,48,0.00
2011,08,01,00,49,0.00
2011,08,01,00,50,0.00
2011,08,01,00,51,0.00
2011,08,01,00,52,0.00
2011,08,01,00,53,0.00
2011,08,01,00,54,0.00
2011,08,01,00,55,0.00
2011,08,01,00,56,0.00
2011,08,01,00,57,0.00
2011,08,01,00,58,0.00
2011,08,01,00,59,0.00
2011,08,01,01,00,0.00
2011,08,01,01,01,0.00
2011,08,01,01,02,0.00
2011,08,01,01,03,0.00
2011,08,01,01,04,0.00
2011,08,01,01,05,0.00
2011,08,01,01,06,0.00
2011,08,01,01,07,0.00
2011,08,01,01,08,0.00
2011,08,01,01,09,0.00
2011,08,01,01,10,0.00
2011,08,01,01,11,0.00
2011,08,01,01,12,0.00
2011,08,01,01,13,0.00
2011,08,01,01,14,0.00
2011,08,01,01,15,0.00
2011,08,01,01,16,0.00
2011,08,01,01,17,0.00
2011,08,01,01,18,0.00
2011,08,01,01,19,0.00
2011,08,01,01,20,0.00
2011,08,01,01,21,0.00
2011,08,01,01,22,0.00
2011,08,01,01,23,0.00
2011,08,01,01,24,0.00
2011,08,01,01,25,0.00
2011,08,01,01,26,0.00
2011,08,01,01,27,0.00
2011,08,01,01,28,0.00
2011,08,01,01,29,0.00
2011,08,01,01,30,0.00
2011,08,01,01,31,0.00
2011,08,01,01,32,0.00
2011,08,01,01,33,0.00
2011,08,01,01,34,0.00
2011,08,01,01,35,0.00
2011,08,01,01,36,0.00
2011,08,01,01,37,0.00
2011,08,01,01,38,0.00
2011,08,01,01,39,0.00
2011,08,01,01,40,0.00
2011,08,01,01,41,0.00
2011,08,01,01,42,0.00
2011,08,01,01,43,0.00
2011,08,01,01,44,0.00
2011,08,01,01,45,0.00
2011,08,01,01,46,0.00
2011,08,01,01,47,0.00
2011,08,01,01,48,0.00
2011,08,01,01,49,0.00
2011,08,01,01,50,0.00
2011,08,01,01,51,0.00
2011,08,01,01,52,0.00
2011,08,01,01,53,0.00
2011,08,01,01,54,0.00
2011,08,01,01,55,0.00
2011,08,01,01,56,0.00
2011,08,01,01,57,0.00
2011,08,01,01,58,0.00
2011,08,01,01,59,0.00
2011,08,01,02,00,0.00
2011,08,01,02,01,0.00
2011,08,01,02,02,0.00
2011,08,01,02,03,0.00
2011,08,01,02,04,0.00
2011,08,01,02,05,0.00
2011,08,01,02,06,0.00
2011,08,01,02,07,0.00
2011,08,01,02,08,0.00
2011,08,01,02,09,0.00
2011,08,01,02,10,0.00
2011,08,01,02,11,0.00
2011,08,01,02,12,0.00
2011,08,01,02,13,0.00
2011,08,01,02,14,0.00
2011,08,01,02,15,0.00
2011,08,01,02,16,0.00
2011,08,01,02,17,0.00
2011,08,01,02,18,0.00
2011,08,01,02,19,0.00
2011,08,01,02,20,0.00
2011,08,01,02,21,0.00
2011,08,01,02,22,0.00
2011,08,01,02,23,0.00
2011,08,01,02,24,0.00
2011,08,01,02,25,0.00
2011,08,01,02,26,0.00
2011,08,01,02,27,0.00
2011,08,01,02,28,0.00
2011,08,01,02,29,0.00
2011,08,01,02,30,0.00
2011,08,01,02,31,0.00
2011,08,01,02,32,0.00
2011,08,01,02,33,0.00
2011,08,01,02,34,0.00
2011,08,01,02,35,0.00
2011,08,01,02,36,0.00
2011,08,01,02,37,0.00
2011,08,01,02,38,0.00
2011,08,01,02,39,0.00
2011,08,01,02,40,0.00
2011,08,01,02,41,0.00
2011,08,01,02,42,0.00
2011,08,01,02,43,0.00
2011,08,01,02,44,0.00
2011,08,01,02,45,0.00
2011,08,01,02,46,0.00
2011,08,01,02,47,0.00
2011,08,01,02,48,0.00
2011,08,01,02,49,0.00
2011,08,01,02,50,0.00
2011,08,01,02,51,0.00
2011,08,01,02,52,0.00
2011,08,01,02,53,0.00
2011,08,01,02,54,0.00
2011,08,01,02,55,0.00
2011,08,01,02,56,0.00
2011,08,01,02,57,0.00
2011,08,01,02,58,0.00
2011,08,01,02,59,0.00
2011,08,01,03,00,0.00
2011,08,01,03,01,0.00
2011,08,01,03,02,0.00
2011,08,01,03,03,0.00
2011,08,01,03,04,0.00
2011,08,01,03,05,0.00
2011,08,01,03,06,0.00
2011,08,01,03,07,0.00
2011,08,01,03,08,0.00
2011,08,01,03,09,0.00
2011,08,01,03,10,0.00
2011,08,01,03,11,0.00
2011,08,01,03,12,0.00
2011,08,01,03,13,0.00
2011,08,01,03,14,0.00
2011,08,01,03,15,0.00
2011,08,01,03,16,0.00
2011,08,01,03,17,0.00
2011,08,01,03,18,0.00
2011,08,01,03,19,0.00
2011,08,01,03,20,0.00
2011,08,01,03,21,0.00
2011,08,01,03,22,0.00
2011,08,01,03,23,0.00
2011,08,01,03,24,0.00
2011,08,01,03,25,0.00
2011,08,01,03,26,0.00
2011,08,01,03,27,0.00
2011,08,01,03,28,0.00
2011,08,01,03,29,0.00
2011,08,01,03,30,0.00
2011,08,01,03,31,0.00
2011,08,01,03,32,0.00
2011,08,01,03,33,0.00
2011,08,01,03,34,0.00
2011,08,01,03,35,0.00
2011,08,01,03,36,0.00
2011,08,01,03,37,0.00
2011,08,01,03,38,0.00
2011,08,01,03,39,0.00
2011,08,01,03,40,0.00
2011,08,01,03,41,0.00
2011,08,01,03,42,0.00
2011,08,01,03,43,0.00
2011,08,01,03,44,0.00
2011,08,01,03,45,0.00
2011,08,01,03,46,0.00
2011,08,01,03,47,0.00
2011,08,01,03,48,0.00
2011,08,01,03,49,0.00
2011,08,01,03,50,0.00
2011,08,01,03,51,0.00
2011,08,01,03,52,0.00
2011,08,01,03,53,0.00
2011,08,01,03,54,0.00
2011,08,01,03,55,0.00
2011,08,01,03,56,0.00
2011,08,01,03,57,0.00
2011,08,01,03,58,0.00
2011,08,01,03,59,0.00
2011,08,01,04,00,0.00
2011,08,01,04,01,0.00
2011,08,01,04,02,0.00
2011,08,01,04,03,0.00
2011,08,01,04,04,0.00
2011,08,01,04,05,0.00
2011,08,01,04,06,0.00
2011,08,01,04,07,0.00
2011,08,01,04,08,0.00
2011,08,01,04,09,0.00
2011,08,01,04,10,0.00
2011,08,01,04,11,0.00
2011,08,01,04,12,0.00
2011,08,01,04,13,0.00
2011,08,01,04,14,0.00
2011,08,01,04,15,0.00
2011,08,01,04,16,0.00
2011,08,01,04,17,0.00
2011,08,01,04,18,0.00
2011,08,01,04,19,0.00
2011,08,01,04,20,0.00
2011,08,01,04,21,0.00
2011,08,01,04,22,0.00
2011,08,01,04,23,0.00
2011,08,01,04,24,0.00
2011,08,01,04,25,0.00
2011,08,01,04,26,0.00
2011,08,01,04,27,0.00
2011,08,01,04,28,0.00
2011,08,01,04,29,0.00
2011,08,01,04,30,0.00
2011,08,01,04,31,0.00
2011,08,01,04,32,0.00
2011,08,01,04,33,0.00
2011,08,01,04,34,0.00
2011,08,01,04,35,0.00
2011,08,01,04,36,0.00
2011,08,01,04,37,0.00
2011,08,01,04,38,0.00
2011,08,01,04,39,0.00
2011,08,01,04,40,0.00
2011,08,01,04,41,0.00
2011,08,01,04,42,0.00
2011,08,01,04,43,0.00
2011,08,01,04,44,0.00
2011,08,01,04,45,0.00
2011,08,01,04,46,0.00
2011,08,01,04,47,0.00
2011,08,01,04,48,0.00
2011,08,01,04,49,0.00
2011,08,01,04,50,0.00
2011,08,01,04,51,0.00
2011,08,01,04,52,0.00
2011,08,01,04,53,0.00
2011,08,01,04,54,0.00
2011,08,01,04,55,0.00
2011,08,01,04,56,0.00
2011,08,01,04,57,0.00
2011,08,01,04,58,0.00
2011,08,01,04,59,0.00
2011,08,01,05,00,0.00
2011,08,01,05,01,0.00
2011,08,01,05,02,0.00
2011,08,01,05,03,0.00
2011,08,01,05,04,0.00
2011,08,01,05,05,0.00
2011,08,01,05,06,0.00
2011,08,01,05,07,0.00
2011,08,01,05,08,0.00
2011,08,01,05,09,0.00
2011,08,01,05,10,0.00
2011,08,01,05,11,0.00
2011,08,01,05,12,0.00
2011,08,01,05,13,0.00
2011,08,01,05,14,0.00
2011,08,01,05,15,0.00
2011,08,01,05,16,0.00
2011,08,01,05,17,0.00
2011,08,01,05,18,0.00
2011,08,01,05,19,0.00
2011,08,01,05,20,0.00
2011,08,01,05,21,0.00
2011,08,01,05,22,0.00
2011,08,01,05,23,0.00
2011,08,01,05,24,0.00
2011,08,01,05,25,0.00
2011,08,01,05,26,0.00
2011,08,01,05,27,0.00
2011,08,01,05,28,0.00
2011,08,01,05,29,0.00
2011,08,01,05,30,0.00
2011,08,01,05,31,0.00
2011,08,01,05,32,0.00
2011,08,01,05,33,0.00
2011,08,01,05,34,0.00
2011,08,01,05,35,0.00
2011,08,01,05,36,0.00
2011,08,01,05,37,0.00
2011,08,01,05,38,0.00
2011,08,01,05,39,0.00
2011,08,01,05,40,0.00
2011,08,01,05,41,0.00
2011,08,01,05,42,0.00
2011,08,01,05,43,0.00
2011,08,01,05,44,0.00
2011,08,01,05,45,0.00
2011,08,01,05,46,0.00
2011,08,01,05,47,0.00
2011,08,01,05,48,0.00
2011,08,01,05,49,0.00
2011,08,01,05,50,1.40
2011,08,01,05,51,5.00
2011,08,01,05,52,5.00
2011,08,01,05,53,5.00
2011,08,01,05,54,5.00
2011,08,01,05,55,5.00
2011,08,01,05,56,6.30
2011,08,01,05,57,7.00
2011,08,01,05,58,7.00
2011,08,01,05,59,7.00
2011,08,01,06,00,7.00
2011,08,01,06,01,7.10
2011,08,01,06,02,9.00
2011,08,01,06,03,9.00
2011,08,01,06,04,9.00
2011,08,01,06,05,9.00
2011,08,01,06,06,9.70
2011,08,01,06,07,11.00
2011,08,01,06,08,11.00
2011,08,01,06,09,11.00
2011,08,01,06,10,11.00
2011,08,01,06,11,11.70
2011,08,01,06,12,12.00
2011,08,01,06,13,12.00
2011,08,01,06,14,12.00
2011,08,01,06,15,12.00
2011,08,01,06,16,14.00
2011,08,01,06,17,14.00
2011,08,01,06,18,14.00
2011,08,01,06,19,14.50
2011,08,01,06,20,16.00
2011,08,01,06,21,16.00
2011,08,01,06,22,16.00
2011,08,01,06,23,17.00
2011,08,01,06,24,18.00
2011,08,01,06,25,18.00
2011,08,01,06,26,18.00
2011,08,01,06,27,18.00
2011,08,01,06,28,18.80
2011,08,01,06,29,19.00
2011,08,01,06,30,19.00
2011,08,01,06,31,19.00
2011,08,01,06,32,19.20
2011,08,01,06,33,21.00
2011,08,01,06,34,21.00
2011,08,01,06,35,21.00
2011,08,01,06,36,21.70
2011,08,01,06,37,23.00
2011,08,01,06,38,23.00
2011,08,01,06,39,23.00
2011,08,01,06,40,24.20
2011,08,01,06,41,25.70
2011,08,01,06,42,28.90
2011,08,01,06,43,26.80
2011,08,01,06,44,25.10
2011,08,01,06,45,25.00
2011,08,01,06,46,26.00
2011,08,01,06,47,26.20
2011,08,01,06,48,28.80
2011,08,01,06,49,32.00
2011,08,01,06,50,30.90
2011,08,01,06,51,28.80
2011,08,01,06,52,30.00
2011,08,01,06,53,33.30
2011,08,01,06,54,38.60
2011,08,01,06,55,39.40
2011,08,01,06,56,42.30
2011,08,01,06,57,40.40
2011,08,01,06,58,35.80
2011,08,01,06,59,35.00
2011,08,01,07,00,32.30
2011,08,01,07,01,33.10
2011,08,01,07,02,35.70
2011,08,01,07,03,42.70
2011,08,01,07,04,45.00
2011,08,01,07,05,40.00
2011,08,01,07,06,35.00
2011,08,01,07,07,35.00
2011,08,01,07,08,36.90
2011,08,01,07,09,39.50
2011,08,01,07,10,57.10
2011,08,01,07,11,83.70
2011,08,01,07,12,64.10
2011,08,01,07,13,40.20
2011,08,01,07,14,55.00
2011,08,01,07,15,94.40
2011,08,01,07,16,114.00
2011,08,01,07,17,113.10
2011,08,01,07,18,118.60
2011,08,01,07,19,152.70
2011,08,01,07,20,174.60
2011,08,01,07,21,177.10
2011,08,01,07,22,179.90
2011,08,01,07,23,182.00
2011,08,01,07,24,184.10
2011,08,01,07,25,186.90
2011,08,01,07,26,189.30
2011,08,01,07,27,191.50
2011,08,01,07,28,194.40
2011,08,01,07,29,196.70
2011,08,01,07,30,198.80
2011,08,01,07,31,200.10
2011,08,01,07,32,202.40
2011,08,01,07,33,206.20
2011,08,01,07,34,208.00
2011,08,01,07,35,211.60
2011,08,01,07,36,213.40
2011,08,01,07,37,215.70
2011,08,01,07,38,218.90
2011,08,01,07,39,221.60
2011,08,01,07,40,224.20
2011,08,01,07,41,227.80
2011,08,01,07,42,229.70
2011,08,01,07,43,231.60
2011,08,01,07,44,235.40
2011,08,01,07,45,236.90
2011,08,01,07,46,241.10
2011,08,01,07,47,243.30
2011,08,01,07,48,246.90
2011,08,01,07,49,252.70
2011,08,01,07,50,260.00
2011,08,01,07,51,267.20
2011,08,01,07,52,272.30
2011,08,01,07,53,275.90
2011,08,01,07,54,280.70
2011,08,01,07,55,286.10
2011,08,01,07,56,294.00
2011,08,01,07,57,303.50
2011,08,01,07,58,313.30
2011,08,01,07,59,315.90
2011,08,01,08,00,313.30
2011,08,01,08,01,305.80
2011,08,01,08,02,301.30
2011,08,01,08,03,292.90
2011,08,01,08,04,219.90
2011,08,01,08,05,159.40
2011,08,01,08,06,193.00
2011,08,01,08,07,237.60
2011,08,01,08,08,298.90
2011,08,01,08,09,301.50
2011,08,01,08,10,303.30
2011,08,01,08,11,306.70
2011,08,01,08,12,308.70
2011,08,01,08,13,312.20
2011,08,01,08,14,315.60
2011,08,01,08,15,317.80
2011,08,01,08,16,318.20
2011,08,01,08,17,323.40
2011,08,01,08,18,327.50
2011,08,01,08,19,330.50
2011,08,01,08,20,332.60
2011,08,01,08,21,335.30
2011,08,01,08,22,339.30
2011,08,01,08,23,342.00
2011,08,01,08,24,344.60
2011,08,01,08,25,347.20
2011,08,01,08,26,350.70
2011,08,01,08,27,354.20
2011,08,01,08,28,358.20
2011,08,01,08,29,359.90
2011,08,01,08,30,363.60
2011,08,01,08,31,367.20
2011,08,01,08,32,371.30
2011,08,01,08,33,374.40
2011,08,01,08,34,377.20
2011,08,01,08,35,381.60
2011,08,01,08,36,384.80
2011,08,01,08,37,388.80
2011,08,01,08,38,391.90
2011,08,01,08,39,395.60
2011,08,01,08,40,400.70
2011,08,01,08,41,406.50
2011,08,01,08,42,410.20
2011,08,01,08,43,414.20
2011,08,01,08,44,417.60
2011,08,01,08,45,419.80
2011,08,01,08,46,424.00
2011,08,01,08,47,425.40
2011,08,01,08,48,429.40
2011,08,01,08,49,431.80
2011,08,01,08,50,434.60
2011,08,01,08,51,437.10
2011,08,01,08,52,439.90
2011,08,01,08,53,442.00
2011,08,01,08,54,444.60
2011,08,01,08,55,447.20
2011,08,01,08,56,450.70
2011,08,01,08,57,454.20
2011,08,01,08,58,458.20
2011,08,01,08,59,460.70
2011,08,01,09,00,463.70
2011,08,01,09,01,464.20
2011,08,01,09,02,469.20
2011,08,01,09,03,471.00
2011,08,01,09,04,472.10
2011,08,01,09,05,476.60
2011,08,01,09,06,478.70
2011,08,01,09,07,481.20
2011,08,01,09,08,484.00
2011,08,01,09,09,487.70
2011,08,01,09,10,491.20
2011,08,01,09,11,494.70
2011,08,01,09,12,496.70
2011,08,01,09,13,500.20
2011,08,01,09,14,502.70
2011,08,01,09,15,503.90
2011,08,01,09,16,508.00
2011,08,01,09,17,508.50
2011,08,01,09,18,502.00
2011,08,01,09,19,467.10
2011,08,01,09,20,509.10
2011,08,01,09,21,518.10
2011,08,01,09,22,520.90
2011,08,01,09,23,523.00
2011,08,01,09,24,522.90
2011,08,01,09,25,523.20
2011,08,01,09,26,525.30
2011,08,01,09,27,528.20
2011,08,01,09,28,533.00
2011,08,01,09,29,539.10
2011,08,01,09,30,540.90
2011,08,01,09,31,540.10
2011,08,01,09,32,543.50
2011,08,01,09,33,548.40
2011,08,01,09,34,551.00
2011,08,01,09,35,554.30
2011,08,01,09,36,556.50
2011,08,01,09,37,559.90
2011,08,01,09,38,562.00
2011,08,01,09,39,563.50
2011,08,01,09,40,565.20
2011,08,01,09,41,567.30
2011,08,01,09,42,569.50
2011,08,01,09,43,572.40
2011,08,01,09,44,574.70
2011,08,01,09,45,577.70
2011,08,01,09,46,582.20
2011,08,01,09,47,585.40
2011,08,01,09,48,589.00
2011,08,01,09,49,586.10
2011,08,01,09,50,579.00
2011,08,01,09,51,586.70
2011,08,01,09,52,592.00
2011,08,01,09,53,593.00
2011,08,01,09,54,596.70
2011,08,01,09,55,601.50
2011,08,01,09,56,605.00
2011,08,01,09,57,606.00
2011,08,01,09,58,606.00
2011,08,01,09,59,606.00
2011,08,01,10,00,606.00
2011,08,01,10,01,615.20
2011,08,01,10,02,619.20
2011,08,01,10,03,621.50
2011,08,01,10,04,624.00
2011,08,01,10,05,625.10
2011,08,01,10,06,628.30
2011,08,01,10,07,629.90
2011,08,01,10,08,632.00
2011,08,01,10,09,634.60
2011,08,01,10,10,636.00
2011,08,01,10,11,637.30
2011,08,01,10,12,638.00
2011,08,01,10,13,638.00
2011,08,01,10,14,639.70
2011,08,01,10,15,642.70
2011,08,01,10,16,643.30
2011,08,01,10,17,650.60
2011,08,01,10,18,655.70
2011,08,01,10,19,654.00
2011,08,01,10,20,653.40
2011,08,01,10,21,653.50
2011,08,01,10,22,656.40
2011,08,01,10,23,658.00
2011,08,01,10,24,660.10
2011,08,01,10,25,662.20
2011,08,01,10,26,663.70
2011,08,01,10,27,666.90
2011,08,01,10,28,669.60
2011,08,01,10,29,674.30
2011,08,01,10,30,675.00
2011,08,01,10,31,679.00
2011,08,01,10,32,680.40
2011,08,01,10,33,684.40
2011,08,01,10,34,686.00
2011,08,01,10,35,686.90
2011,08,01,10,36,689.00
2011,08,01,10,37,691.10
2011,08,01,10,38,689.20
2011,08,01,10,39,675.30
2011,08,01,10,40,671.10
2011,08,01,10,41,682.30
2011,08,01,10,42,695.40
2011,08,01,10,43,702.00
2011,08,01,10,44,704.70
2011,08,01,10,45,706.80
2011,08,01,10,46,711.80
2011,08,01,10,47,699.30
2011,08,01,10,48,626.10
2011,08,01,10,49,654.70
2011,08,01,10,50,680.70
2011,08,01,10,51,699.30
2011,08,01,10,52,705.30
2011,08,01,10,53,716.90
2011,08,01,10,54,721.70
2011,08,01,10,55,722.80
2011,08,01,10,56,721.30
2011,08,01,10,57,721.70
2011,08,01,10,58,723.50
2011,08,01,10,59,725.70
2011,08,01,11,00,698.70
2011,08,01,11,01,729.00
2011,08,01,11,02,728.00
2011,08,01,11,03,728.00
2011,08,01,11,04,729.70
2011,08,01,11,05,737.00
2011,08,01,11,06,741.30
2011,08,01,11,07,740.90
2011,08,01,11,08,743.00
2011,08,01,11,09,744.60
2011,08,01,11,10,745.00
2011,08,01,11,11,746.30
2011,08,01,11,12,748.50
2011,08,01,11,13,750.60
2011,08,01,11,14,751.90
2011,08,01,11,15,752.00
2011,08,01,11,16,754.00
2011,08,01,11,17,756.00
2011,08,01,11,18,756.40
2011,08,01,11,19,758.20
2011,08,01,11,20,758.10
2011,08,01,11,21,758.70
2011,08,01,11,22,763.90
2011,08,01,11,23,759.80
2011,08,01,11,24,742.50
2011,08,01,11,25,757.10
2011,08,01,11,26,774.00
2011,08,01,11,27,775.00
2011,08,01,11,28,778.20
2011,08,01,11,29,779.90
2011,08,01,11,30,780.00
2011,08,01,11,31,780.00
2011,08,01,11,32,780.00
2011,08,01,11,33,780.00
2011,08,01,11,34,780.50
2011,08,01,11,35,782.60
2011,08,01,11,36,784.00
2011,08,01,11,37,784.90
2011,08,01,11,38,786.00
2011,08,01,11,39,787.00
2011,08,01,11,40,789.90
2011,08,01,11,41,791.00
2011,08,01,11,42,792.50
2011,08,01,11,43,793.00
2011,08,01,11,44,794.70
2011,08,01,11,45,793.20
2011,08,01,11,46,795.00
2011,08,01,11,47,795.30
2011,08,01,11,48,798.00
2011,08,01,11,49,798.50
2011,08,01,11,50,800.00
2011,08,01,11,51,800.70
2011,08,01,11,52,802.40
2011,08,01,11,53,804.00
2011,08,01,11,54,805.00
2011,08,01,11,55,805.00
2011,08,01,11,56,806.30
2011,08,01,11,57,807.00
2011,08,01,11,58,807.00
2011,08,01,11,59,808.70
2011,08,01,12,00,809.90
2011,08,01,12,01,810.00
2011,08,01,12,02,810.40
2011,08,01,12,03,814.00
2011,08,01,12,04,814.50
2011,08,01,12,05,816.00
2011,08,01,12,06,816.40
2011,08,01,12,07,817.00
2011,08,01,12,08,818.00
2011,08,01,12,09,819.00
2011,08,01,12,10,820.20
2011,08,01,12,11,821.00
2011,08,01,12,12,821.00
2011,08,01,12,13,822.50
2011,08,01,12,14,823.90
2011,08,01,12,15,824.00
2011,08,01,12,16,826.00
2011,08,01,12,17,825.80
2011,08,01,12,18,824.70
2011,08,01,12,19,828.00
2011,08,01,12,20,828.00
2011,08,01,12,21,828.70
2011,08,01,12,22,830.00
2011,08,01,12,23,830.00
2011,08,01,12,24,830.50
2011,08,01,12,25,830.40
2011,08,01,12,26,830.70
2011,08,01,12,27,832.50
2011,08,01,12,28,833.00
2011,08,01,12,29,833.00
2011,08,01,12,30,834.80
2011,08,01,12,31,835.00
2011,08,01,12,32,835.20
2011,08,01,12,33,837.10
2011,08,01,12,34,837.80
2011,08,01,12,35,837.00
2011,08,01,12,36,837.00
2011,08,01,12,37,837.40
2011,08,01,12,38,838.00
2011,08,01,12,39,839.10
2011,08,01,12,40,840.00
2011,08,01,12,41,841.30
2011,08,01,12,42,842.00
2011,08,01,12,43,840.40
2011,08,01,12,44,841.70
2011,08,01,12,45,842.00
2011,08,01,12,46,842.00
2011,08,01,12,47,842.00
2011,08,01,12,48,842.00
2011,08,01,12,49,842.90
2011,08,01,12,50,845.40
2011,08,01,12,51,844.00
2011,08,01,12,52,843.10
2011,08,01,12,53,844.00
2011,08,01,12,54,846.00
2011,08,01,12,55,846.00
2011,08,01,12,56,846.00
2011,08,01,12,57,846.00
2011,08,01,12,58,846.00
2011,08,01,12,59,846.00
2011,08,01,13,00,846.00
2011,08,01,13,01,846.00
2011,08,01,13,02,846.00
2011,08,01,13,03,846.00
2011,08,01,13,04,846.20
2011,08,01,13,05,847.00
2011,08,01,13,06,846.60
2011,08,01,13,07,846.00
2011,08,01,13,08,846.50
2011,08,01,13,09,846.50
2011,08,01,13,10,846.60
2011,08,01,13,11,846.30
2011,08,01,13,12,846.00
2011,08,01,13,13,846.00
2011,08,01,13,14,846.00
2011,08,01,13,15,846.90
2011,08,01,13,16,845.80
2011,08,01,13,17,842.20
2011,08,01,13,18,844.00
2011,08,01,13,19,844.50
2011,08,01,13,20,846.00
2011,08,01,13,21,846.00
2011,08,01,13,22,846.00
2011,08,01,13,23,844.20
2011,08,01,13,24,844.20
2011,08,01,13,25,844.80
2011,08,01,13,26,844.00
2011,08,01,13,27,844.00
2011,08,01,13,28,844.00
2011,08,01,13,29,844.00
2011,08,01,13,30,842.20
2011,08,01,13,31,844.10
2011,08,01,13,32,845.70
2011,08,01,13,33,844.00
2011,08,01,13,34,843.50
2011,08,01,13,35,840.90
2011,08,01,13,36,836.90
2011,08,01,13,37,837.10
2011,08,01,13,38,840.00
2011,08,01,13,39,840.00
2011,08,01,13,40,838.80
2011,08,01,13,41,839.30
2011,08,01,13,42,838.50
2011,08,01,13,43,838.00
2011,08,01,13,44,838.00
2011,08,01,13,45,835.30
2011,08,01,13,46,838.00
2011,08,01,13,47,838.00
2011,08,01,13,48,838.00
2011,08,01,13,49,837.80
2011,08,01,13,50,837.30
2011,08,01,13,51,837.60
2011,08,01,13,52,836.10
2011,08,01,13,53,836.00
2011,08,01,13,54,837.50
2011,08,01,13,55,838.00
2011,08,01,13,56,838.00
2011,08,01,13,57,838.00
2011,08,01,13,58,837.20
2011,08,01,13,59,815.60
2011,08,01,14,00,813.80
2011,08,01,14,01,805.60
2011,08,01,14,02,777.30
2011,08,01,14,03,774.90
2011,08,01,14,04,760.10
2011,08,01,14,05,784.30
2011,08,01,14,06,769.70
2011,08,01,14,07,756.30
2011,08,01,14,08,757.90
2011,08,01,14,09,713.90
2011,08,01,14,10,694.40
2011,08,01,14,11,741.70
2011,08,01,14,12,731.90
2011,08,01,14,13,762.30
2011,08,01,14,14,750.60
2011,08,01,14,15,770.60
2011,08,01,14,16,749.50
2011,08,01,14,17,761.00
2011,08,01,14,18,776.90
2011,08,01,14,19,766.00
2011,08,01,14,20,774.40
2011,08,01,14,21,778.70
2011,08,01,14,22,787.10
2011,08,01,14,23,787.00
2011,08,01,14,24,801.10
2011,08,01,14,25,815.10
2011,08,01,14,26,817.00
2011,08,01,14,27,817.00
2011,08,01,14,28,828.20
2011,08,01,14,29,819.00
2011,08,01,14,30,817.00
2011,08,01,14,31,809.50
2011,08,01,14,32,806.50
2011,08,01,14,33,743.10
2011,08,01,14,34,700.70
2011,08,01,14,35,730.00
2011,08,01,14,36,732.90
2011,08,01,14,37,692.90
2011,08,01,14,38,677.60
2011,08,01,14,39,708.50
2011,08,01,14,40,728.40
2011,08,01,14,41,725.30
2011,08,01,14,42,742.80
2011,08,01,14,43,747.50
2011,08,01,14,44,774.20
2011,08,01,14,45,800.70
2011,08,01,14,46,790.30
2011,08,01,14,47,803.70
2011,08,01,14,48,810.00
2011,08,01,14,49,808.80
2011,08,01,14,50,805.00
2011,08,01,14,51,804.00
2011,08,01,14,52,798.10
2011,08,01,14,53,786.80
2011,08,01,14,54,786.80
2011,08,01,14,55,790.60
2011,08,01,14,56,778.30
2011,08,01,14,57,743.90
2011,08,01,14,58,733.00
2011,08,01,14,59,770.70
2011,08,01,15,00,768.80
2011,08,01,15,01,768.00
2011,08,01,15,02,767.80
2011,08,01,15,03,766.00
2011,08,01,15,04,769.20
2011,08,01,15,05,775.10
2011,08,01,15,06,738.70
2011,08,01,15,07,694.80
2011,08,01,15,08,678.10
2011,08,01,15,09,706.40
2011,08,01,15,10,749.90
2011,08,01,15,11,759.00
2011,08,01,15,12,767.20
2011,08,01,15,13,759.90
2011,08,01,15,14,752.00
2011,08,01,15,15,744.70
2011,08,01,15,16,737.90
2011,08,01,15,17,735.50
2011,08,01,15,18,740.70
2011,08,01,15,19,743.50
2011,08,01,15,20,740.00
2011,08,01,15,21,735.70
2011,08,01,15,22,734.40
2011,08,01,15,23,732.00
2011,08,01,15,24,734.10
2011,08,01,15,25,735.00
2011,08,01,15,26,735.00
2011,08,01,15,27,680.10
2011,08,01,15,28,722.90
2011,08,01,15,29,715.60
2011,08,01,15,30,701.10
2011,08,01,15,31,689.00
2011,08,01,15,32,686.60
2011,08,01,15,33,662.20
2011,08,01,15,34,651.90
2011,08,01,15,35,638.70
2011,08,01,15,36,607.30
2011,08,01,15,37,578.00
2011,08,01,15,38,620.90
2011,08,01,15,39,672.70
2011,08,01,15,40,667.50
2011,08,01,15,41,644.30
2011,08,01,15,42,642.50
2011,08,01,15,43,622.30
2011,08,01,15,44,601.60
2011,08,01,15,45,591.70
2011,08,01,15,46,561.50
2011,08,01,15,47,574.00
2011,08,01,15,48,599.40
2011,08,01,15,49,572.50
2011,08,01,15,50,550.30
2011,08,01,15,51,538.50
2011,08,01,15,52,528.90
2011,08,01,15,53,527.70
2011,08,01,15,54,546.00
2011,08,01,15,55,547.60
2011,08,01,15,56,544.30
2011,08,01,15,57,568.30
2011,08,01,15,58,590.80
2011,08,01,15,59,591.40
2011,08,01,16,00,576.50
2011,08,01,16,01,541.80
2011,08,01,16,02,477.90
2011,08,01,16,03,399.50
2011,08,01,16,04,362.00
2011,08,01,16,05,405.40
2011,08,01,16,06,441.60
2011,08,01,16,07,475.60
2011,08,01,16,08,518.80
2011,08,01,16,09,559.80
2011,08,01,16,10,579.20
2011,08,01,16,11,580.00
2011,08,01,16,12,548.00
2011,08,01,16,13,520.60
2011,08,01,16,14,569.30
2011,08,01,16,15,624.40
2011,08,01,16,16,637.70
2011,08,01,16,17,589.30
2011,08,01,16,18,571.20
2011,08,01,16,19,563.20
2011,08,01,16,20,568.00
2011,08,01,16,21,588.90
2011,08,01,16,22,593.90
2011,08,01,16,23,578.30
2011,08,01,16,24,570.50
2011,08,01,16,25,572.80
2011,08,01,16,26,586.00
2011,08,01,16,27,592.60
2011,08,01,16,28,578.60
2011,08,01,16,29,519.30
2011,08,01,16,30,558.00
2011,08,01,16,31,547.20
2011,08,01,16,32,530.90
2011,08,01,16,33,488.90
2011,08,01,16,34,520.00
2011,08,01,16,35,492.90
2011,08,01,16,36,453.70
2011,08,01,16,37,498.90
2011,08,01,16,38,499.60
2011,08,01,16,39,510.70
2011,08,01,16,40,507.40
2011,08,01,16,41,495.60
2011,08,01,16,42,492.00
2011,08,01,16,43,492.00
2011,08,01,16,44,492.00
2011,08,01,16,45,449.30
2011,08,01,16,46,433.20
2011,08,01,16,47,416.60
2011,08,01,16,48,404.70
2011,08,01,16,49,408.50
2011,08,01,16,50,416.30
2011,08,01,16,51,433.50
2011,08,01,16,52,430.90
2011,08,01,16,53,426.40
2011,08,01,16,54,423.50
2011,08,01,16,55,409.70
2011,08,01,16,56,410.00
2011,08,01,16,57,419.50
2011,08,01,16,58,413.20
2011,08,01,16,59,404.10
2011,08,01,17,00,382.10
2011,08,01,17,01,389.50
2011,08,01,17,02,380.70
2011,08,01,17,03,370.00
2011,08,01,17,04,352.10
2011,08,01,17,05,422.00
2011,08,01,17,06,452.00
2011,08,01,17,07,445.60
2011,08,01,17,08,418.40
2011,08,01,17,09,427.90